ACA33 CYVR-CYYZ

Flight info

Callsign ACA33
Flight time N/A
Altitude 41000
Route ALNOD DCT IKNIX DCT BEVEL DCT 4930N10000W DCT AGLIN DCT OTNIK BOXUM7
Aircraft A359/H-SDE2E3GHIJ3J4J5LM1ORWXY/LB1D1

Departure

Time 2026-05-06 21:47
Airport Vancouver International Airport (CYVR)

Arrival

Time N/A
Airport Toronto Pearson International Airport (CYYZ)
Time Latitude Longitude Altitude Speed Heading
2026-05-06 21:36 49.19175 -123.18213 28 ft 0 kts 10°
2026-05-06 21:37 49.19154 -123.18218 29 ft 4 kts 358°
2026-05-06 21:38 49.19129 -123.18209 30 ft 4 kts 322°
2026-05-06 21:38 49.19114 -123.18179 30 ft 3 kts 282°
2026-05-06 21:38 49.19113 -123.18173 30 ft 4 kts 279°
2026-05-06 21:41 49.19113 -123.18175 30 ft 1 kts 279°
2026-05-06 21:42 49.19117 -123.18202 30 ft 5 kts 282°
2026-05-06 21:42 49.19121 -123.18276 28 ft 9 kts 271°
2026-05-06 21:42 49.19111 -123.18374 25 ft 11 kts 262°
2026-05-06 21:42 49.19125 -123.18474 29 ft 7 kts 315°
2026-05-06 21:43 49.19144 -123.18599 28 ft 17 kts 256°
2026-05-06 21:43 49.19181 -123.18711 28 ft 20 kts 318°
2026-05-06 21:43 49.19318 -123.18878 26 ft 23 kts 324°
2026-05-06 21:43 49.19357 -123.19015 27 ft 14 kts 265°
2026-05-06 21:44 49.19338 -123.19179 27 ft 19 kts 259°
2026-05-06 21:44 49.19312 -123.19404 25 ft 25 kts 260°
2026-05-06 21:44 49.19273 -123.19689 24 ft 29 kts 258°
2026-05-06 21:44 49.19236 -123.20002 26 ft 30 kts 259°
2026-05-06 21:45 49.19194 -123.20326 25 ft 32 kts 259°
2026-05-06 21:45 49.19192 -123.20607 22 ft 24 kts 278°
2026-05-06 21:45 49.19152 -123.20816 24 ft 20 kts 205°
2026-05-06 21:45 49.19024 -123.20807 23 ft 18 kts 130°
2026-05-06 21:46 49.19002 -123.20690 26 ft 0 kts 101°
2026-05-06 21:47 49.19001 -123.20687 26 ft 4 kts 101°
2026-05-06 21:47 49.18952 -123.20261 26 ft 77 kts 99°
2026-05-06 21:47 49.18821 -123.19114 25 ft 140 kts 100°
2026-05-06 21:47 49.18639 -123.17568 641 ft 143 kts 101°
2026-05-06 21:48 49.18462 -123.16001 1173 ft 162 kts 101°
2026-05-06 21:48 49.18272 -123.14174 1567 ft 185 kts 102°
2026-05-06 21:48 49.18070 -123.12135 2096 ft 203 kts 102°
2026-05-06 21:48 49.17869 -123.09879 2527 ft 226 kts 101°
2026-05-06 21:49 49.17631 -123.07389 2994 ft 247 kts 101°
2026-05-06 21:49 49.17357 -123.04732 3673 ft 257 kts 100°
2026-05-06 21:49 49.17094 -123.01985 4401 ft 266 kts 99°
2026-05-06 21:49 49.16859 -122.99141 5139 ft 274 kts 96°
2026-05-06 21:50 49.16695 -122.96205 5894 ft 281 kts 94°
2026-05-06 21:50 49.16579 -122.93189 6697 ft 287 kts 94°
2026-05-06 21:50 49.16408 -122.90131 7505 ft 292 kts 96°
2026-05-06 21:50 49.16181 -122.87012 8310 ft 298 kts 97°
2026-05-06 21:51 49.15918 -122.83840 9175 ft 303 kts 98°
2026-05-06 21:51 49.15634 -122.80618 10011 ft 309 kts 98°
2026-05-06 21:51 49.15334 -122.77281 10540 ft 327 kts 98°
2026-05-06 21:51 49.15016 -122.73724 10890 ft 349 kts 98°
2026-05-06 21:52 49.14688 -122.70019 11363 ft 364 kts 98°
2026-05-06 21:52 49.14347 -122.66146 12066 ft 371 kts 98°
2026-05-06 21:52 49.13997 -122.62153 12829 ft 378 kts 98°
2026-05-06 21:52 49.13650 -122.58197 13556 ft 384 kts 98°
2026-05-06 21:53 49.13292 -122.54122 14274 ft 390 kts 97°
2026-05-06 21:53 49.12923 -122.49938 14980 ft 395 kts 97°
2026-05-06 21:53 49.12557 -122.45813 15649 ft 400 kts 97°
2026-05-06 21:53 49.12179 -122.41573 16330 ft 405 kts 98°
2026-05-06 21:54 49.11796 -122.37292 17010 ft 410 kts 98°
2026-05-06 21:54 49.11406 -122.32961 17691 ft 415 kts 98°
2026-05-06 21:54 49.11009 -122.28571 18359 ft 420 kts 98°
2026-05-06 21:54 49.10605 -122.24128 18960 ft 425 kts 98°
2026-05-06 21:55 49.10195 -122.19642 19601 ft 429 kts 97°
2026-05-06 21:55 49.09780 -122.15117 20221 ft 433 kts 97°
2026-05-06 21:55 49.09358 -122.10543 20789 ft 438 kts 97°
2026-05-06 21:55 49.08932 -122.05920 21424 ft 442 kts 97°
2026-05-06 21:56 49.08500 -122.01260 22056 ft 446 kts 97°
2026-05-06 21:56 49.08058 -121.96541 22629 ft 451 kts 97°
2026-05-06 21:56 49.07612 -121.91784 23237 ft 456 kts 97°
2026-05-06 21:56 49.07160 -121.86975 23812 ft 460 kts 97°
2026-05-06 21:57 49.06702 -121.82128 24301 ft 465 kts 97°
2026-05-06 21:57 49.06238 -121.77227 24805 ft 469 kts 97°
2026-05-06 21:57 49.05766 -121.72280 25301 ft 474 kts 97°
2026-05-06 21:57 49.05416 -121.67275 25790 ft 476 kts 90°
2026-05-06 21:58 49.05520 -121.62240 26332 ft 476 kts 82°
2026-05-06 21:58 49.05852 -121.57201 26775 ft 480 kts 79°
2026-05-06 21:58 49.06275 -121.52139 27247 ft 483 kts 78°
2026-05-06 21:58 49.06584 -121.48775 27608 ft 484 kts 78°
2026-05-06 21:59 49.07069 -121.43673 28138 ft 488 kts 77°
2026-05-06 21:59 49.07559 -121.38539 28640 ft 491 kts 77°
2026-05-06 21:59 49.08052 -121.33360 29044 ft 496 kts 77°
2026-05-06 21:59 49.08537 -121.28137 29503 ft 499 kts 77°
2026-05-06 22:00 49.09010 -121.22882 29994 ft 501 kts 77°
2026-05-06 22:00 49.09472 -121.17594 30308 ft 505 kts 77°
2026-05-06 22:00 49.09932 -121.12265 30555 ft 509 kts 77°
2026-05-06 22:00 49.10400 -121.06900 30941 ft 511 kts 77°
2026-05-06 22:01 49.10876 -121.01512 31399 ft 513 kts 78°
2026-05-06 22:01 49.11352 -120.96108 31776 ft 516 kts 78°
2026-05-06 22:01 49.11827 -120.90664 32101 ft 519 kts 78°
2026-05-06 22:01 49.12300 -120.85193 32459 ft 521 kts 78°
2026-05-06 22:02 49.12771 -120.79686 32769 ft 524 kts 78°
2026-05-06 22:02 49.13241 -120.74156 33039 ft 527 kts 78°
2026-05-06 22:02 49.13711 -120.68593 33357 ft 529 kts 78°
2026-05-06 22:02 49.14180 -120.63016 33670 ft 531 kts 78°
2026-05-06 22:03 49.14650 -120.57402 33946 ft 534 kts 78°
2026-05-06 22:03 49.15120 -120.51757 34162 ft 537 kts 78°
2026-05-06 22:03 49.15588 -120.46084 34417 ft 539 kts 78°
2026-05-06 22:03 49.16047 -120.40476 34724 ft 540 kts 78°
2026-05-06 22:04 49.16510 -120.34782 35057 ft 539 kts 78°
2026-05-06 22:04 49.16967 -120.29108 35397 ft 538 kts 78°
2026-05-06 22:04 49.17423 -120.23427 35720 ft 538 kts 78°
2026-05-06 22:04 49.17875 -120.17757 36025 ft 536 kts 78°
2026-05-06 22:05 49.18319 -120.12141 36544 ft 531 kts 78°
2026-05-06 22:05 49.18760 -120.06541 36916 ft 530 kts 78°
2026-05-06 22:05 49.19201 -120.00947 37116 ft 531 kts 78°
2026-05-06 22:05 49.19641 -119.95329 37348 ft 532 kts 78°
2026-05-06 22:06 49.20075 -119.89734 37737 ft 529 kts 78°
2026-05-06 22:06 49.20504 -119.84150 38033 ft 528 kts 78°
2026-05-06 22:06 49.20930 -119.78583 38261 ft 528 kts 78°
2026-05-06 22:06 49.21355 -119.73003 38425 ft 529 kts 78°
2026-05-06 22:07 49.21778 -119.67416 38594 ft 529 kts 78°
2026-05-06 22:07 49.22196 -119.61837 38866 ft 526 kts 78°
2026-05-06 22:07 49.23003 -119.50891 38937 ft 516 kts 78°
2026-05-06 22:08 49.23810 -119.39914 39081 ft 522 kts 78°
2026-05-06 22:08 49.24618 -119.28822 39267 ft 526 kts 79°
2026-05-06 22:09 49.25017 -119.23253 39431 ft 527 kts 79°
2026-05-06 22:09 49.25409 -119.17681 39608 ft 526 kts 79°
2026-05-06 22:09 49.25784 -119.12111 39760 ft 528 kts 80°
2026-05-06 22:09 49.26148 -119.06527 39933 ft 527 kts 80°
2026-05-06 22:10 49.26506 -119.00943 40054 ft 527 kts 80°
2026-05-06 22:10 49.26857 -118.95437 40205 ft 526 kts 80°
2026-05-06 22:10 49.27212 -118.89868 40398 ft 525 kts 81°
2026-05-06 22:10 49.27565 -118.84313 40587 ft 524 kts 81°
2026-05-06 22:11 49.28272 -118.73170 40686 ft 529 kts 81°
2026-05-06 22:11 49.28979 -118.61890 40673 ft 535 kts 81°
2026-05-06 22:12 49.29681 -118.50480 40678 ft 541 kts 81°
2026-05-06 22:12 49.30375 -118.38984 40676 ft 543 kts 81°
2026-05-06 22:13 49.31056 -118.27455 40678 ft 544 kts 81°
2026-05-06 22:13 49.31729 -118.15918 40675 ft 544 kts 82°
2026-05-06 22:14 49.32391 -118.04359 40684 ft 545 kts 82°
2026-05-06 22:14 49.33041 -117.92794 40690 ft 544 kts 82°
2026-05-06 22:15 49.33680 -117.81238 40681 ft 544 kts 82°
2026-05-06 22:15 49.34304 -117.69750 40690 ft 544 kts 82°
2026-05-06 22:16 49.34919 -117.58204 40683 ft 542 kts 82°
2026-05-06 22:16 49.35521 -117.46658 40684 ft 544 kts 82°
2026-05-06 22:17 49.36114 -117.35105 40696 ft 543 kts 82°
2026-05-06 22:17 49.36693 -117.23553 40710 ft 543 kts 82°
2026-05-06 22:18 49.37263 -117.12001 40745 ft 543 kts 82°
2026-05-06 22:18 49.37821 -117.00436 40746 ft 543 kts 83°
2026-05-06 22:19 49.38369 -116.88869 40745 ft 544 kts 83°
2026-05-06 22:19 49.38903 -116.77298 40766 ft 543 kts 83°
2026-05-06 22:20 49.39425 -116.65734 40751 ft 543 kts 83°
2026-05-06 22:20 49.39936 -116.54165 40761 ft 543 kts 83°
2026-05-06 22:21 49.40435 -116.42607 40766 ft 542 kts 83°
2026-05-06 22:21 49.40923 -116.31055 40789 ft 542 kts 83°
2026-05-06 22:22 49.41399 -116.19505 40773 ft 542 kts 83°
2026-05-06 22:22 49.41863 -116.07952 40767 ft 542 kts 83°
2026-05-06 22:23 49.42315 -115.96411 40763 ft 542 kts 83°
2026-05-06 22:23 49.42753 -115.84930 40766 ft 542 kts 84°
2026-05-06 22:24 49.43182 -115.73391 40765 ft 541 kts 84°
2026-05-06 22:24 49.43602 -115.61788 40766 ft 540 kts 84°
2026-05-06 22:25 49.44008 -115.50267 40773 ft 540 kts 84°
2026-05-06 22:25 49.44400 -115.38819 40776 ft 540 kts 84°
2026-05-06 22:26 49.44782 -115.27305 40760 ft 539 kts 84°
2026-05-06 22:26 49.45150 -115.15811 40767 ft 538 kts 84°
2026-05-06 22:27 49.45508 -115.04334 40778 ft 538 kts 84°
2026-05-06 22:27 49.45856 -114.92838 40780 ft 538 kts 84°
2026-05-06 22:28 49.46191 -114.81351 40771 ft 538 kts 84°
2026-05-06 22:28 49.46515 -114.69874 40765 ft 537 kts 84°
2026-05-06 22:29 49.46827 -114.58405 40760 ft 537 kts 84°
2026-05-06 22:29 49.47128 -114.46929 40742 ft 537 kts 85°
2026-05-06 22:30 49.47417 -114.35465 40719 ft 536 kts 85°
2026-05-06 22:30 49.47694 -114.24029 40696 ft 535 kts 85°
2026-05-06 22:31 49.47960 -114.12607 40678 ft 534 kts 85°
2026-05-06 22:31 49.48214 -114.01188 40690 ft 534 kts 85°
2026-05-06 22:32 49.48457 -113.89780 40704 ft 534 kts 85°
2026-05-06 22:32 49.48688 -113.78392 40689 ft 533 kts 85°
2026-05-06 22:33 49.48908 -113.67014 40684 ft 532 kts 85°
2026-05-06 22:33 49.49116 -113.55631 40679 ft 532 kts 85°
2026-05-06 22:34 49.49313 -113.44321 40685 ft 532 kts 85°
2026-05-06 22:34 49.49499 -113.32944 40665 ft 532 kts 85°
2026-05-06 22:35 49.49674 -113.21572 40663 ft 532 kts 85°
2026-05-06 22:35 49.49838 -113.10202 40664 ft 532 kts 86°
2026-05-06 22:36 49.49991 -112.98827 40660 ft 532 kts 86°
2026-05-06 22:36 49.50132 -112.87451 40659 ft 532 kts 85°
2026-05-06 22:37 49.50263 -112.76060 40660 ft 533 kts 85°
2026-05-06 22:37 49.50382 -112.64666 40664 ft 533 kts 85°
2026-05-06 22:38 49.50491 -112.53263 40677 ft 533 kts 86°
2026-05-06 22:38 49.50588 -112.41861 40699 ft 533 kts 86°
2026-05-06 22:39 49.50674 -112.30463 40697 ft 533 kts 86°
2026-05-06 22:39 49.50749 -112.19058 40699 ft 533 kts 86°
2026-05-06 22:40 49.50812 -112.07656 40698 ft 533 kts 86°
2026-05-06 22:40 49.50864 -111.96246 40704 ft 533 kts 86°
2026-05-06 22:41 49.50921 -111.79153 40707 ft 533 kts 86°
2026-05-06 22:42 49.50945 -111.67762 40703 ft 533 kts 86°
2026-05-06 22:42 49.50959 -111.56365 40703 ft 533 kts 86°
2026-05-06 22:43 49.50960 -111.44965 40705 ft 532 kts 86°
2026-05-06 22:43 49.50951 -111.33578 40708 ft 532 kts 86°
2026-05-06 22:44 49.50931 -111.22205 40723 ft 532 kts 86°
2026-05-06 22:44 49.50899 -111.10825 40719 ft 532 kts 86°
2026-05-06 22:45 49.50856 -110.99442 40733 ft 532 kts 86°
2026-05-06 22:45 49.50801 -110.88074 40723 ft 531 kts 86°
2026-05-06 22:46 49.50737 -110.76705 40728 ft 531 kts 86°
2026-05-06 22:46 49.50661 -110.65344 40732 ft 531 kts 86°
2026-05-06 22:47 49.50574 -110.53986 40754 ft 531 kts 86°
2026-05-06 22:47 49.50475 -110.42701 40745 ft 531 kts 86°
2026-05-06 22:48 49.50366 -110.31350 40749 ft 531 kts 86°
2026-05-06 22:48 49.50246 -110.20005 40749 ft 531 kts 86°
2026-05-06 22:49 49.50115 -110.08654 40789 ft 531 kts 86°
2026-05-06 22:49 49.49996 -109.99149 40756 ft 530 kts 86°
2026-05-06 22:50 49.50262 -109.87953 40763 ft 525 kts 80°
2026-05-06 22:50 49.50871 -109.76765 40760 ft 525 kts 79°
2026-05-06 22:51 49.51429 -109.65553 40763 ft 526 kts 81°
2026-05-06 22:51 49.51901 -109.54315 40768 ft 526 kts 81°
2026-05-06 22:52 49.52332 -109.43098 40770 ft 525 kts 81°
2026-05-06 22:52 49.52751 -109.31876 40777 ft 525 kts 81°
2026-05-06 22:53 49.53162 -109.20656 40780 ft 525 kts 81°
2026-05-06 22:53 49.53565 -109.09426 40784 ft 525 kts 81°
2026-05-06 22:54 49.53955 -108.98215 40780 ft 524 kts 81°
2026-05-06 22:54 49.54336 -108.87003 40785 ft 524 kts 81°
2026-05-06 22:55 49.54705 -108.75785 40782 ft 525 kts 81°
2026-05-06 22:55 49.55063 -108.64562 40787 ft 525 kts 81°
2026-05-06 22:56 49.55411 -108.53345 40791 ft 525 kts 81°
2026-05-06 22:56 49.55747 -108.42120 40792 ft 525 kts 81°
2026-05-06 22:57 49.56073 -108.30891 40791 ft 525 kts 81°
2026-05-06 22:57 49.56389 -108.19665 40820 ft 525 kts 81°
2026-05-06 22:58 49.56692 -108.08438 40798 ft 524 kts 81°
2026-05-06 22:58 49.56984 -107.97228 40798 ft 524 kts 81°
2026-05-06 22:59 49.57267 -107.86005 40804 ft 524 kts 82°
2026-05-06 22:59 49.57537 -107.74859 40803 ft 524 kts 82°
2026-05-06 23:00 49.57797 -107.63637 40809 ft 524 kts 82°
2026-05-06 23:00 49.58047 -107.52405 40816 ft 525 kts 82°
2026-05-06 23:01 49.58285 -107.41189 40958 ft 522 kts 82°
2026-05-06 23:01 49.58512 -107.30009 41045 ft 523 kts 82°
2026-05-06 23:02 49.58729 -107.18790 40998 ft 523 kts 82°
2026-05-06 23:02 49.58935 -107.07581 41007 ft 523 kts 82°
2026-05-06 23:03 49.59131 -106.96369 41008 ft 523 kts 82°
2026-05-06 23:03 49.59315 -106.85158 41013 ft 524 kts 82°
2026-05-06 23:04 49.59489 -106.73938 41015 ft 523 kts 83°
2026-05-06 23:04 49.59651 -106.62725 41015 ft 523 kts 83°
2026-05-06 23:05 49.59803 -106.51507 41017 ft 523 kts 83°
2026-05-06 23:05 49.59944 -106.40287 41017 ft 524 kts 83°
2026-05-06 23:06 49.60074 -106.29061 41015 ft 524 kts 83°
2026-05-06 23:06 49.60194 -106.17841 41020 ft 524 kts 83°
2026-05-06 23:07 49.60301 -106.06602 41021 ft 524 kts 83°
2026-05-06 23:07 49.60399 -105.95370 41030 ft 524 kts 83°
2026-05-06 23:08 49.60487 -105.84131 41031 ft 524 kts 84°
2026-05-06 23:08 49.60563 -105.72882 41034 ft 525 kts 84°
2026-05-06 23:09 49.60628 -105.61636 41039 ft 525 kts 84°
2026-05-06 23:09 49.60682 -105.50382 41040 ft 525 kts 84°
2026-05-06 23:10 49.60726 -105.39128 41047 ft 525 kts 84°
2026-05-06 23:10 49.60758 -105.27943 41042 ft 525 kts 84°
2026-05-06 23:11 49.60780 -105.16601 41035 ft 526 kts 84°
2026-05-06 23:11 49.60791 -105.05409 41034 ft 526 kts 84°
2026-05-06 23:12 49.60791 -104.94138 41044 ft 526 kts 84°
2026-05-06 23:12 49.60778 -104.82867 41039 ft 526 kts 84°
2026-05-06 23:13 49.60756 -104.71590 41033 ft 526 kts 85°
2026-05-06 23:13 49.60723 -104.60307 41031 ft 526 kts 85°
2026-05-06 23:14 49.60679 -104.49031 41051 ft 526 kts 85°
2026-05-06 23:14 49.60624 -104.37754 41027 ft 526 kts 85°
2026-05-06 23:15 49.60558 -104.26479 41029 ft 526 kts 85°
2026-05-06 23:15 49.60481 -104.15210 41028 ft 526 kts 85°
2026-05-06 23:16 49.60394 -104.03935 41049 ft 526 kts 85°
2026-05-06 23:16 49.60295 -103.92666 41021 ft 525 kts 85°
2026-05-06 23:17 49.60185 -103.81404 41024 ft 525 kts 85°
2026-05-06 23:17 49.60065 -103.70148 41024 ft 525 kts 85°
2026-05-06 23:18 49.59933 -103.58885 41032 ft 526 kts 86°
2026-05-06 23:18 49.59791 -103.47618 41022 ft 525 kts 86°
2026-05-06 23:19 49.59637 -103.36361 41022 ft 525 kts 86°
2026-05-06 23:19 49.59473 -103.25098 41021 ft 525 kts 86°
2026-05-06 23:20 49.59298 -103.13843 41022 ft 525 kts 86°
2026-05-06 23:20 49.59112 -103.02585 41026 ft 526 kts 86°
2026-05-06 23:21 49.58915 -102.91319 41023 ft 526 kts 86°
2026-05-06 23:21 49.58707 -102.80057 41023 ft 526 kts 86°
2026-05-06 23:22 49.58488 -102.68804 41024 ft 526 kts 86°
2026-05-06 23:22 49.58260 -102.57617 41026 ft 526 kts 87°
2026-05-06 23:23 49.58018 -102.46347 41021 ft 526 kts 87°
2026-05-06 23:23 49.57766 -102.35075 41019 ft 526 kts 87°
2026-05-06 23:24 49.57504 -102.23813 41021 ft 526 kts 87°
2026-05-06 23:24 49.57230 -102.12543 41021 ft 526 kts 88°
2026-05-06 23:25 49.56945 -102.01274 41025 ft 526 kts 88°
2026-05-06 23:25 49.56650 -101.89999 41023 ft 527 kts 88°
2026-05-06 23:26 49.56343 -101.78721 41023 ft 527 kts 88°
2026-05-06 23:26 49.56024 -101.67430 41029 ft 527 kts 89°
2026-05-06 23:27 49.55695 -101.56149 41026 ft 528 kts 89°
2026-05-06 23:27 49.55354 -101.44860 41026 ft 528 kts 89°
2026-05-06 23:28 49.55003 -101.33575 41029 ft 528 kts 89°
2026-05-06 23:28 49.54641 -101.22283 41039 ft 528 kts 89°
2026-05-06 23:29 49.54267 -101.11001 41028 ft 527 kts 89°
2026-05-06 23:29 49.53883 -100.99725 41028 ft 527 kts 89°
2026-05-06 23:30 49.53488 -100.88457 41032 ft 527 kts 89°
2026-05-06 23:30 49.53083 -100.77179 41042 ft 528 kts 90°
2026-05-06 23:31 49.52668 -100.65976 41032 ft 528 kts 90°
2026-05-06 23:31 49.52240 -100.54704 41027 ft 527 kts 90°
2026-05-06 23:32 49.51801 -100.43439 41017 ft 527 kts 90°
2026-05-06 23:32 49.51352 -100.32178 41029 ft 528 kts 90°
2026-05-06 23:33 49.50891 -100.20911 41019 ft 528 kts 90°
2026-05-06 23:33 49.50419 -100.09635 41021 ft 528 kts 90°
2026-05-06 23:34 49.49935 -99.98354 41021 ft 529 kts 91°
2026-05-06 23:34 49.49216 -99.87087 41039 ft 530 kts 94°
2026-05-06 23:35 49.48338 -99.75835 41018 ft 530 kts 94°
2026-05-06 23:35 49.47474 -99.64584 41023 ft 530 kts 94°
2026-05-06 23:36 49.46634 -99.53332 41023 ft 530 kts 94°
2026-05-06 23:36 49.45796 -99.42088 41021 ft 530 kts 94°
2026-05-06 23:37 49.45092 -99.32746 41019 ft 530 kts 94°
2026-05-06 23:37 49.44233 -99.21502 41019 ft 530 kts 94°
2026-05-06 23:38 49.43220 -99.08451 41022 ft 530 kts 94°
2026-05-06 23:38 49.42481 -98.99041 41022 ft 530 kts 94°
2026-05-06 23:39 49.41588 -98.87810 41020 ft 530 kts 95°
2026-05-06 23:39 49.40685 -98.76590 41018 ft 530 kts 95°
2026-05-06 23:40 49.39769 -98.65358 41021 ft 530 kts 95°
2026-05-06 23:40 49.38842 -98.54128 41015 ft 530 kts 95°
2026-05-06 23:41 49.37912 -98.42981 41015 ft 530 kts 95°
2026-05-06 23:41 49.36963 -98.31755 41015 ft 530 kts 95°
2026-05-06 23:42 49.36004 -98.20543 41015 ft 530 kts 95°
2026-05-06 23:42 49.35034 -98.09321 41015 ft 530 kts 95°
2026-05-06 23:43 49.34053 -97.98110 41023 ft 530 kts 95°
2026-05-06 23:43 49.33061 -97.86908 41020 ft 530 kts 96°
2026-05-06 23:44 49.32058 -97.75702 41020 ft 530 kts 96°
2026-05-06 23:44 49.31045 -97.64506 41026 ft 530 kts 96°
2026-05-06 23:45 49.30021 -97.53314 41034 ft 531 kts 96°
2026-05-06 23:45 49.28986 -97.42126 41027 ft 530 kts 96°
2026-05-06 23:46 49.27939 -97.30939 41026 ft 531 kts 96°
2026-05-06 23:46 49.26881 -97.19747 41027 ft 531 kts 96°
2026-05-06 23:47 49.25813 -97.08562 41037 ft 531 kts 97°
2026-05-06 23:47 49.24733 -96.97375 41025 ft 531 kts 97°